軌道要素
Epoch 2009 Oct. 16.0 TT = JDT 2455120.5
T 2009 Oct. 8.16657 TT MPC
q 6.2203599 (2000.0) P Q
z +0.0002541 Peri. 282.52088 +0.12763353 +0.56795216
+/-0.0000025 Node 54.40056 +0.54910623 +0.64224129
e 0.9984195 Incl. 89.89652 -0.82594917 +0.51473922
From 119 observations 2009 Oct. 9-2011 Oct. 4, mean residual 0".6.
|